COSMOS 1275 DEB, 12719

Orbit data source: Space-Track

COSMOS 1275 DEB, 12719 is space debris in LEO originally from a launch on Thu, 04 Jun 1981 UTC launched from the Plesetsk Missile And Space Complex (PKMTR). Debris objects in space refer to the collection of defunct objects orbiting the Earth. Examples of debris include non-operational satellites, rocket bodies, and fragments generated from explosions, collisions, or faulty payload assembly.

Loading next visibility...
Identifier
12719, 1981-053BL
Orbit
LEO
Country
Flag of CISCIS
Related business
Manufacturer
Unknown
Mission
Spacecraft
Bus & Motor
Unknown
Mass
Unknown
Launch date (UTC)
1981-06-04 (45 years ago)
Launch vehicle
Unknown
Launch site
Plesetsk Missile And Space Complex (PKMTR)
Object type
Payload
Rocket body
Debris
Shape & HBR
Unknown shape, 0.2 m
Radar Cross Section
Medium (>0.1 m² and <1 m²)

Expand to show TLE details & history
Last TLE update: 15 hours ago

TLE from 15 hours ago
0 COSMOS 1275 DEB
1 12719U 81053BL  26150.27998807  .00000416  00000-0  29880-3 0  9992
2 12719  82.9602  54.0073 0023273  42.9255  82.5310 13.94554939267075
Epoch: 2026-05-30T06:43Z
TLE epoch observation values (Epoch: 2026-05-30T06:43:10.969Z)
Latitude
53.78106°
Longitude
-124.24243°
Altitude
919.376 km
Speed
7.398 km/s
True Right ascension
14h 57m 24s
True Declination
53° 37' 14"
Sunlit
Object was in daylight at epoch
Visualization orbit readout
Latitude
Unknown
Longitude
Unknown
Altitude
Unknown
Speed
Unknown
Apparent Right ascension
Unknown
Apparent Declination
Unknown
Sunlit
N/A
Visualization observer readout
Local Sidereal Time
07:02:45
Azimuth
Unknown
Elevation
Unknown
Doppler factor
Unknown
Orbital elements
Apogee altitude
926.794 km
Perigee altitude
892.872 km
Semi-major axis
7,287.97 km
Eccentricity
0.00233
Inclination
82.9602°
RAAN
54.0073°
Arg. of periapsis
42.9255°
True anomaly
82.79553°
Mean anomaly
82.531°
Eccentric anomaly
82.66325°
Mean motion
3.48846 °/min
Orbital period
103.2 mins
BSTAR
0.0002988
Loading maneuver chart data...
Computing Atmospheric mass density...
Loading historical data...
Loading historical data...
Loading historical data...
Loading historical data...
Loading historical data...
Loading historical data...
Loading historical data...

Documentation

Showing up to 5 results
|